| time (UTC) | temp F | wind direction | speed MPH | gust MPH | rain 1hr in | rain 24hr in | rain mn in | humidity % | barometer mb |
| 20260507220304 | 59 | 120 | 2.0 | 0.0 | 0.00 | 0.00 | 0.00 | 94 | 1015.0 |
| 20260507214805 | 57 | 90 | 6.0 | 0.0 | 0.00 | 0.00 | 0.00 | 100 | 1015.0 |
| 20260507213306 | 57 | 90 | 6.0 | 0.0 | 0.00 | 0.00 | 0.00 | 100 | 1015.0 |
| 20260507211805 | 59 | 80 | 5.0 | 0.0 | 0.00 | 0.00 | 0.00 | 94 | 1015.0 |
| 20260507210305 | 59 | 80 | 5.0 | 0.0 | 0.00 | 0.00 | 0.00 | 94 | 1015.0 |
| 20260507204805 | 57 | 80 | 3.0 | 0.0 | 0.00 | 0.00 | 0.00 | 100 | 1014.0 |
| 20260507203305 | 57 | 80 | 3.0 | 0.0 | 0.00 | 0.00 | 0.00 | 100 | 1014.0 |
| 20260507201805 | 59 | 80 | 6.0 | 0.0 | 0.00 | 0.00 | 0.00 | 94 | 1014.0 |
| 20260507200305 | 59 | 80 | 6.0 | 0.0 | 0.00 | 0.00 | 0.00 | 94 | 1014.0 |
| 20260507194811 | 61 | 80 | 7.0 | 0.0 | 0.00 | 0.00 | 0.00 | 94 | 1014.0 |
| 20260507193305 | 61 | 80 | 7.0 | 0.0 | 0.00 | 0.00 | 0.00 | 94 | 1014.0 |
| 20260507191805 | 59 | 80 | 6.0 | 0.0 | 0.00 | 0.00 | 0.00 | 100 | 1014.0 |
| 20260507190306 | 59 | 80 | 6.0 | 0.0 | 0.00 | 0.00 | 0.00 | 100 | 1014.0 |
| 20260507184807 | 61 | 80 | 6.0 | 0.0 | 0.00 | 0.00 | 0.00 | 94 | 1014.0 |
| 20260507183305 | 61 | 80 | 6.0 | 0.0 | 0.00 | 0.00 | 0.00 | 94 | 1014.0 |
| 20260507181805 | 63 | 60 | 3.0 | 0.0 | 0.00 | 0.00 | 0.00 | 94 | 1014.0 |
| 20260507180305 | 63 | 60 | 3.0 | 0.0 | 0.00 | 0.00 | 0.00 | 94 | 1014.0 |
| 20260507174804 | 63 | 80 | 3.0 | 0.0 | 0.00 | 0.00 | 0.00 | 94 | 1014.0 |
| 20260507173305 | 63 | 80 | 3.0 | 0.0 | 0.00 | 0.00 | 0.00 | 94 | 1014.0 |
| 20260507171806 | 63 | 70 | 6.0 | 0.0 | 0.00 | 0.00 | 0.00 | 94 | 1013.0 |
| 20260507170305 | 63 | 70 | 6.0 | 0.0 | 0.00 | 0.00 | 0.00 | 94 | 1013.0 |
| 20260507164805 | 64 | 70 | 6.0 | 0.0 | 0.00 | 0.00 | 0.00 | 83 | 1013.0 |
| 20260507163305 | 64 | 70 | 6.0 | 0.0 | 0.00 | 0.00 | 0.00 | 83 | 1013.0 |
| 20260507161805 | 64 | 60 | 5.0 | 0.0 | 0.00 | 0.00 | 0.00 | 83 | 1013.0 |
| 20260507160305 | 64 | 60 | 5.0 | 0.0 | 0.00 | 0.00 | 0.00 | 83 | 1013.0 |
| 20260507154805 | 66 | 40 | 3.0 | 0.0 | 0.00 | 0.00 | 0.00 | 78 | 1014.0 |
| 20260507153305 | 66 | 40 | 3.0 | 0.0 | 0.00 | 0.00 | 0.00 | 78 | 1014.0 |
| 20260507151805 | 66 | 40 | 3.0 | 0.0 | 0.00 | 0.00 | 0.00 | 73 | 1014.0 |
| 20260507150305 | 66 | 40 | 3.0 | 0.0 | 0.00 | 0.00 | 0.00 | 73 | 1014.0 |
| 20260507144805 | 66 | 30 | 5.0 | 0.0 | 0.00 | 0.00 | 0.00 | 73 | 1014.0 |
| 20260507143307 | 66 | 30 | 5.0 | 0.0 | 0.00 | 0.00 | 0.00 | 73 | 1014.0 |
| 20260507141805 | 64 | 70 | 5.0 | 0.0 | 0.00 | 0.00 | 0.00 | 78 | 1014.0 |
| 20260507140305 | 64 | 70 | 5.0 | 0.0 | 0.00 | 0.00 | 0.00 | 78 | 1014.0 |
| 20260507134805 | 64 | 90 | 5.0 | 0.0 | 0.00 | 0.00 | 0.00 | 83 | 1014.0 |
| 20260507133305 | 64 | 90 | 5.0 | 0.0 | 0.00 | 0.00 | 0.00 | 83 | 1014.0 |
| 20260507131805 | 64 | 80 | 6.0 | 0.0 | 0.00 | 0.00 | 0.00 | 78 | 1015.0 |
| 20260507130305 | 64 | 80 | 6.0 | 0.0 | 0.00 | 0.00 | 0.00 | 78 | 1015.0 |
| 20260507124805 | 64 | 70 | 6.0 | 0.0 | 0.00 | 0.00 | 0.00 | 83 | 1015.0 |
| 20260507123344 | 64 | 70 | 6.0 | 0.0 | 0.00 | 0.00 | 0.00 | 83 | 1015.0 |
| 20260507121805 | 63 | 100 | 6.0 | 0.0 | 0.00 | 0.00 | 0.00 | 88 | 1015.0 |
| 20260507120305 | 63 | 100 | 6.0 | 0.0 | 0.00 | 0.00 | 0.00 | 88 | 1015.0 |
| 20260507114805 | 63 | 150 | 5.0 | 0.0 | 0.00 | 0.00 | 0.00 | 88 | 1015.0 |
| 20260507113319 | 61 | 80 | 5.0 | 0.0 | 0.00 | 0.00 | 0.00 | 94 | 1015.0 |
| 20260507111805 | 61 | 80 | 5.0 | 0.0 | 0.00 | 0.00 | 0.00 | 94 | 1015.0 |
| 20260507110305 | 61 | 80 | 5.0 | 0.0 | 0.00 | 0.00 | 0.00 | 94 | 1015.0 |
| 20260507104804 | 63 | 110 | 6.0 | 0.0 | 0.00 | 0.00 | 0.00 | 83 | 1015.0 |
| 20260507103305 | 63 | 110 | 6.0 | 0.0 | 0.00 | 0.00 | 0.00 | 83 | 1015.0 |
| 20260507101805 | 61 | 180 | 5.0 | 0.0 | 0.00 | 0.00 | 0.00 | 94 | 1016.0 |
| 20260507100305 | 61 | 180 | 5.0 | 0.0 | 0.00 | 0.00 | 0.00 | 94 | 1016.0 |
| 20260507094805 | 61 | 190 | 7.0 | 0.0 | 0.00 | 0.00 | 0.00 | 94 | 1016.0 |
| 20260507093305 | 61 | 190 | 7.0 | 0.0 | 0.00 | 0.00 | 0.00 | 94 | 1016.0 |
| 20260507091806 | 61 | 200 | 5.0 | 0.0 | 0.00 | 0.00 | 0.00 | 100 | 1016.0 |
| 20260507090306 | 61 | 200 | 5.0 | 0.0 | 0.00 | 0.00 | 0.00 | 100 | 1016.0 |
| 20260507084805 | 61 | 260 | 5.0 | 0.0 | 0.00 | 0.00 | 0.00 | 100 | 1015.0 |
| 20260507083305 | 61 | 260 | 5.0 | 0.0 | 0.00 | 0.00 | 0.00 | 100 | 1015.0 |
| 20260507081805 | 61 | 240 | 6.0 | 0.0 | 0.00 | 0.00 | 0.00 | 100 | 1015.0 |
| 20260507080306 | 61 | 240 | 6.0 | 0.0 | 0.00 | 0.00 | 0.00 | 100 | 1015.0 |
| 20260507074805 | 63 | 240 | 7.0 | 0.0 | 0.00 | 0.00 | 0.00 | 94 | 1015.0 |
| 20260507073305 | 63 | 240 | 7.0 | 0.0 | 0.00 | 0.00 | 0.00 | 94 | 1015.0 |
| 20260507071805 | 63 | 240 | 7.0 | 0.0 | 0.00 | 0.00 | 0.00 | 94 | 1015.0 |
| 20260507070304 | 63 | 240 | 7.0 | 0.0 | 0.00 | 0.00 | 0.00 | 94 | 1015.0 |
| 20260507064805 | 61 | 220 | 7.0 | 0.0 | 0.00 | 0.00 | 0.00 | 94 | 1015.0 |
| 20260507063305 | 61 | 220 | 7.0 | 0.0 | 0.00 | 0.00 | 0.00 | 94 | 1015.0 |
| 20260507061817 | 63 | 230 | 7.0 | 0.0 | 0.00 | 0.00 | 0.00 | 83 | 1014.0 |
| 20260507060305 | 63 | 230 | 7.0 | 0.0 | 0.00 | 0.00 | 0.00 | 83 | 1014.0 |
| 20260507054805 | 63 | 210 | 5.0 | 0.0 | 0.00 | 0.00 | 0.00 | 73 | 1014.0 |
| 20260507053312 | 63 | 210 | 5.0 | 0.0 | 0.00 | 0.00 | 0.00 | 73 | 1014.0 |
| 20260507051805 | 59 | 250 | 5.0 | 0.0 | 0.00 | 0.00 | 0.00 | 82 | 1013.0 |
| 20260507050305 | 59 | 250 | 5.0 | 0.0 | 0.00 | 0.00 | 0.00 | 82 | 1013.0 |
| 20260507044805 | 57 | 200 | 5.0 | 0.0 | 0.00 | 0.00 | 0.00 | 88 | 1013.0 |
| 20260507043305 | 57 | 200 | 5.0 | 0.0 | 0.00 | 0.00 | 0.00 | 88 | 1013.0 |
| 20260507041805 | 59 | 190 | 6.0 | 0.0 | 0.00 | 0.00 | 0.00 | 77 | 1013.0 |
| 20260507040305 | 59 | 190 | 6.0 | 0.0 | 0.00 | 0.00 | 0.00 | 77 | 1013.0 |
| 20260507034805 | 57 | 150 | 5.0 | 0.0 | 0.00 | 0.00 | 0.00 | 82 | 1012.0 |
| 20260507033304 | 57 | 150 | 5.0 | 0.0 | 0.00 | 0.00 | 0.00 | 82 | 1012.0 |
| 20260507031805 | 57 | 110 | 7.0 | 0.0 | 0.00 | 0.00 | 0.00 | 77 | 1012.0 |
| 20260507030305 | 57 | 110 | 7.0 | 0.0 | 0.00 | 0.00 | 0.00 | 77 | 1012.0 |
| 20260507024805 | 57 | 100 | 7.0 | 0.0 | 0.00 | 0.00 | 0.00 | 77 | 1012.0 |
| 20260507023304 | 57 | 100 | 7.0 | 0.0 | 0.00 | 0.00 | 0.00 | 77 | 1012.0 |
| 20260507021805 | 59 | 100 | 7.0 | 0.0 | 0.00 | 0.00 | 0.00 | 72 | 1011.0 |
| 20260507020305 | 59 | 100 | 7.0 | 0.0 | 0.00 | 0.00 | 0.00 | 72 | 1011.0 |
| 20260507014805 | 59 | 110 | 8.0 | 0.0 | 0.00 | 0.00 | 0.00 | 72 | 1011.0 |
| 20260507013304 | 59 | 110 | 8.0 | 0.0 | 0.00 | 0.00 | 0.00 | 72 | 1011.0 |
| 20260507011805 | 57 | 90 | 7.0 | 0.0 | 0.00 | 0.00 | 0.00 | 77 | 1011.0 |
| 20260507010305 | 57 | 90 | 7.0 | 0.0 | 0.00 | 0.00 | 0.00 | 77 | 1011.0 |
| 20260507004804 | 59 | 80 | 9.0 | 0.0 | 0.00 | 0.00 | 0.00 | 72 | 1011.0 |
| 20260507003305 | 59 | 80 | 9.0 | 0.0 | 0.00 | 0.00 | 0.00 | 72 | 1011.0 |
| 20260507001805 | 63 | 200 | 5.0 | 0.0 | 0.00 | 0.00 | 0.00 | 59 | 1011.0 |
| 20260507000306 | 63 | 200 | 5.0 | 0.0 | 0.00 | 0.00 | 0.00 | 59 | 1011.0 |
| 20260506234805 | 59 | 110 | 9.0 | 0.0 | 0.00 | 0.00 | 0.00 | 72 | 1011.0 |
| 20260506233305 | 59 | 110 | 9.0 | 0.0 | 0.00 | 0.00 | 0.00 | 72 | 1011.0 |
| 20260506231805 | 55 | 100 | 8.0 | 0.0 | 0.00 | 0.00 | 0.00 | 82 | 1011.0 |
| 20260506230305 | 55 | 100 | 8.0 | 0.0 | 0.00 | 0.00 | 0.00 | 82 | 1011.0 |
| 20260506224804 | 54 | 80 | 9.0 | 0.0 | 0.00 | 0.00 | 0.00 | 88 | 1011.0 |
| 20260506223305 | 54 | 80 | 9.0 | 0.0 | 0.00 | 0.00 | 0.00 | 88 | 1011.0 |
| 20260506221804 | 54 | 100 | 7.0 | 0.0 | 0.00 | 0.00 | 0.00 | 82 | 1011.0 |